www.pogodaiklimat.ru

АРХИВ ПОГОДЫ в Волгограде

Время (UTC), дата Ветер
(напр.,м/с)
 
Видим.   Явления Облачность Т
(С)
Тd
(С)
f
(%)
Тe
(С)
Тes
(С)
Комфортность P
(гПа)
Po
(гПа)
Тmin
(С)
Tmax
(С)
R
(мм)
S
(см)
00 23.09 Ю 2 10 км 9/0
[Ac trans]
+9.3 +7.8 90 +8 +8 по сезону 1018.2 1001.9
03 23.09 З 1 10 км 8/0
[Ci fib]
+8.9 +7.7 92 +8 +8 прохладно 1018.5 1002.2 +8.7
06 23.09 СВ 2 10 км 5/0
[Ci fib]
+15.2 +4.3 48 +15 +19 тепло 1018.6 1002.5 +8.4
09 23.09 СВ 3 10 км 9/3 1000 м
[Cu hum Ci fib]
+17.5 +4.0 41 +18 +22 тепло 1017.7 1001.8
12 23.09 В 4 10 км 8/0
[Ac trans Ci fib]
+18.1 +3.5 38 +18 +20 по сезону 1016.3 1000.5
15 23.09 СВ 4 10 км 5/0
[Ac trans]
+15.6 +4.6 48 +15 +15 по сезону 1016.0 1000.0 +18.5
18 23.09 СВ 3 10 км слабый ливневой дождь 9/4 1500 м
[Cb calv Ac trans]
+13.3 +8.9 75 +12 +12 по сезону 1016.7 1000.6
21 23.09 С 4 10 км {гроза, ливн. осадки} 9/5
[Cb calv Ac trans]
+11.7 +8.3 80 +10 +10 по сезону 1016.0 999.8
00 24.09 СЗ 5 10 км слабый ливневой дождь {гроза} 9/9
[Cb calv]
+10.5 +7.8 83 +8 +8 по сезону 1015.2 998.9
03 24.09 С 8-11
{12}
10 км слабый ливневой дождь 9/6 1000 м
[Cb calv Ac trans]
+9.4 +8.5 94 +5 +5 холодно 1014.4 998.1 +9.0
06 24.09 СЗ 8-12
{13}
10 км слабый ливневой дождь 10/10 210 м
[Cb calv]
+10.0 +9.1 94 +6 +6 холодно 1014.2 997.9
09 24.09 С 11-15
{15}
10 км в посл. час ливневой дождь 10/10 240 м
[Cb calv]
+10.8 +9.4 91 +6 +6 очень
холодно
1011.6 995.4
12 24.09 СЗ 10-13
{16}
10 км {ливн. осадки} 9/9 300 м
[St]
+10.7 +9.0 89 +6 +6 очень
холодно
1012.7 996.5
15 24.09 СЗ 9-13
{14}
10 км слабый дождь 10/10 240 м
[Frnb Ns]
+9.8 +8.6 92 +5 +5 очень
холодно
1012.6 996.3 +11.1
18 24.09 З 8-11
{14}
4000 м слабый ливневой дождь 10/10 150 м
[Cb calv]
+9.4 +8.9 97 +5 +5 холодно 1011.9 995.6
21 24.09 -14
{16}
10 км слабый ливневой дождь н/о +8.8 +8.1 95 +4 +4 холодно 1010.0 993.7
00 25.09 З 10-13
{16}
10 км {ливн. осадки} 9/9 210 м
[St]
+8.3 +7.4 94 +3 +3 прохладно 1009.4 993.1
03 25.09 З 10-13
{14}
10 км 9/9 300 м
[St]
+7.9 +6.6 91 +2 +2 очень
холодно
1009.0 992.7 +7.8
06 25.09 З 9-12
{14}
10 км 9/9 330 м
[St]
+8.7 +6.8 88 +4 +4 очень
холодно
1009.3 993.0
09 25.09 ЮЗ 10-13
{14}
10 км 9/9 480 м
[Sc]
+10.0 +6.4 78 +6 +6 очень
холодно
1009.4 993.2
12 25.09 ЮЗ 9-12
{14}
10 км 9/9 660 м
[Sc]
+10.5 +5.8 73 +7 +7 очень
холодно
1009.7 993.5
15 25.09 Ю 5
{12}
10 км 8/5 1500 м
[Cb calv Ac trans]
+9.5 +5.9 78 +6 +6 очень
холодно
1010.3 994.0 +11.2
18 25.09 Ю 6
{12}
10 км слабый ливневой дождь 10/10 300 м
[Cb calv]
+8.4 +7.7 95 +4 +4 холодно 1009.9 993.6
21 25.09 Ю 4 10 км слабый ливневой дождь 10/10 210 м
[Cb calv]
+8.3 +7.5 95 +5 +5 прохладно 1008.9 992.6
00 26.09 Ю 3 10 км {ливн. осадки} 10/10 210 м
[St]
+7.7 +7.1 96 +5 +5 прохладно 1008.4 992.1
03 26.09 Ю 4 10 км слабый дождь 10/10 120 м
[Frnb Ns]
+8.1 +7.7 97 +5 +5 прохладно 1007.8 991.5 +7.4
06 26.09 Ю 4 4000 м слабый дождь {ливн. осадки} 10/10 120 м
[Frnb Ns]
+8.9 +8.5 97 +6 +6 холодно 1007.4 991.2
09 26.09 Ю 3 4000 м слабый дождь 10/10 180 м
[Frnb Ns]
+10.2 +9.1 93 +8 +8 холодно 1006.7 990.6
12 26.09 З 7 4000 м слабый ливневой дождь 9/9 90 м
[Cb calv]
+9.9 +9.4 97 +6 +6 очень
холодно
1008.0 991.8
15 26.09 З 5
{10}
10 км {ливн. осадки} 9/9 210 м
[Cb calv]
+9.5 +8.9 96 +6 +6 очень
холодно
1009.7 993.5 +11.1
18 26.09 З 4
{10}
10 км в посл. час ливневой дождь 9/3 300 м
[St Ac und]
+8.8 +8.3 97 +6 +6 холодно 1010.4 994.1
21 26.09 З 4 10 км 8/8 120 м
[St]
+8.6 +8.2 97 +5 +5 прохладно 1010.4 994.1
00 27.09 З 6 10 км {дождь} 9/9 120 м
[St]
+9.0 +8.5 97 +5 +5 по сезону 1010.1 993.8
03 27.09 З 6 10 км 9/9 240 м
[St]
+9.5 +8.7 95 +6 +6 прохладно 1010.4 994.1 +8.3
06 27.09 СЗ 9
{12}
10 км 8/8 270 м
[St]
+11.0 +9.1 88 +7 +7 прохладно 1011.4 995.2
09 27.09 СЗ 10-13
{13}
10 км 8/8 630 м
[Sc]
+13.9 +8.1 68 +11 +11 прохладно 1011.9 995.9
12 27.09 З 6
{13}
10 км слабый ливневой дождь 9/9 900 м
[Cb calv]
+12.6 +9.4 81 +10 +10 очень
холодно
1012.5 996.4
15 27.09 З 6
{14}
10 км 5/5 600 м
[Cb calv]
+10.8 +8.5 86 +8 +8 холодно 1013.2 997.0 +15.5
18 27.09 З 6
{14}
10 км в посл. час ливневой дождь 6/0
[Ac trans]
+9.6 +8.2 91 +6 +6 прохладно 1013.8 997.5
21 27.09 10 км н/о +10.0 +9.2 95 +6 +6 прохладно 1013.3 997.0
00 28.09 З 7 10 км слабый ливневой дождь 10/10 210 м
[Cb calv]
+10.0 +9.3 95 +6 +6 по сезону 1012.7 996.4
03 28.09 СЗ 7
{10}
10 км слабый дождь {ливн. осадки} 10/10 180 м
[Frnb Ns]
+9.6 +8.9 95 +6 +6 прохладно 1013.3 997.0 +9.4
06 28.09 СЗ 7
{10}
10 км слабый дождь {ливн. осадки} 10/10 150 м
[Frnb Ns]
+9.4 +8.7 95 +5 +5 холодно 1013.8 997.5 +8.9
09 28.09 СЗ 7 10 км в посл. час дождь 10/0 180 м
[As op]
+10.2 +9.0 92 +6 +7 очень
холодно
1014.3 998.0
12 28.09 СЗ 8-11
{11}
10 км {дождь} 9/9 600 м
[Sc]
+11.9 +8.0 77 +9 +9 очень
холодно
1014.4 998.2
15 28.09 СЗ 7 10 км 9/9 840 м
[Sc]
+10.4 +7.8 84 +7 +7 холодно 1015.3 999.0 +12.9
18 28.09 СЗ 5
{11}
10 км 9/0
[Ac trans]
+8.7 +7.2 90 +5 +5 холодно 1016.1 999.8
21 28.09 З 5 10 км 5/5 1000 м
[Sc]
+7.4 +5.9 90 +3 +3 холодно 1016.5 1000.1
00 29.09 СЗ 5 10 км 9/9 1000 м
[Sc]
+7.5 +4.7 82 +4 +4 прохладно 1016.3 999.9
03 29.09 З 5 10 км 9/9 1000 м
[Sc]
+7.0 +5.0 87 +3 +3 холодно 1016.4 1000.0 +6.8
06 29.09 СЗ 8 10 км 9/9 1500 м
[Sc]
+9.1 +5.0 75 +5 +5 холодно 1016.6 1000.3 +6.7
09 29.09 СЗ 6
{11}
10 км 9/9 1000 м
[Sc]
+12.1 +2.8 53 +10 +10 прохладно 1015.6 999.4
12 29.09 СЗ 7-10
{11}
10 км 9/9 1500 м
[Sc]
+11.2 +2.1 53 +8 +8 очень
холодно
1015.7 999.4
15 29.09 З 5
{10}
10 км 9/9 1500 м
[Sc]
+9.7 +2.9 63 +7 +7 холодно 1016.2 999.9 +13.0
18 29.09 З 3
{10}
10 км 8/8 1500 м
[Sc]
+8.2 +3.3 71 +6 +6 прохладно 1016.9 1000.5
21 29.09 С 2 10 км 9/9
[Sc]
+7.0 +3.7 79 +5 +5 прохладно 1017.1 1000.6

 

Местоположение метеостанции Волгоград (Волгоградская область, Россия): широта 48.78 долгота 44.37 высота над уровнем моря 134 м.

В архиве по умолчанию представлена погода в Волгограде за последнюю неделю. Архивные данные за месяц целиком и за предыдущие месяцы, начиная с января 2011 года, Вы можете получить, выбрав интересующий диапазон дат из раскрывающегося списка и нажав кнопку "Ввод!".

Внимание! Время в таблицах - всемирное. Для получения местного времени необходимо прибавить поправку, которая в Волгограде равна 3 ч.

Ветер - указаны скорость ветра в м/с - средняя за 10 мин, порывы в срок и между сроками (в фигурных скобках) и направление, откуда дует ветер: С - северный, СВ - северо-восточный, В - восточный, ЮВ - юго-восточный, Ю - южный, ЮЗ - юго-западный, З - западный, СЗ - северо-западный.
Видимость - горизонтальная дальность видимости в метрах или километрах. При видимости от 1 до 10 км при отсутствии осадков обычно наблюдается дымка, при ухудшении видимости до 1 км и менее - туман. В сухую погоду видимость может ухудшаться дымом, пылью или мглою.
Явления - указаны атмосферные явления, наблюдавшиеся в срок или в последний час перед сроком; фигурными скобками обозначены явления, наблюдавшиеся между сроками (за 1-3 часа до срока); квадратными скобками обозначены град или гололедные отложения с указанием их диаметра в мм.
Облачность - указаны через наклонную черту общая и нижняя облачность в баллах и высота нижней границы облаков в метрах; квадратными скобками обозначены формы облаков: Ci - перистые, Cs - перисто-слоистые, Cc - перисто-кучевые, Ac - высококучевые, As - высокослоистые, Sc - слоисто-кучевые, Ns - слоисто-дождевые, Cu - кучевые, Cb - кучево-дождевые. Подробнее классификацию облаков см. в Атласе облаков (PDF).
T - Температура воздуха - температура, измеренная на высоте 2 м над землей.
Td - Температура точки росы - температура, при понижении до которой содержащийся в воздухе водяной пар достигнет насыщения.
f - Относительная влажность воздуха - влажноcть воздуха, измеренная на высоте 2 м над землей.
Te - Эффективная температура - температура, которую ощущает одетый по сезону человек в тени. Характеристика душности погоды. При расчете учитывается влияние влажности воздуха и скорости ветра на теплоощущения человека.
Tes - Эффективная температура на солнце - температура, которую ощущает человек, с поправкой на солнечный нагрев. Характеристика знойности погоды. Зависит от высоты солнца над горизонтом, облачности и скорости ветра. Ночью, в пасмурную погоду, а также при ветре 12 м/с и более поправка равна нулю.
P - Атмосферное давление - приведенное к уровню моря атмосферное давление.
Po - Атмосферное давление - измеренное на уровне метеостанции атмосферное давление.
Tmin - Минимальная температура - минимум температуры воздуха на высоте 2 м над землей.
Tmax - Максимальная температура - максимум температуры воздуха на высоте 2 м над землей.
R - Количество осадков - Количество выпавших осадков, мм. При наведении курсора мыши на число - период времени, за который выпало указанное количество осадков.
S - Снежный покров - Высота снежного покрова, см. При наведении курсора мыши на число - состояние снежного покрова и степень покрытия местности в баллах.